Regional Weather Roundup
Issued by NWS Binghamton, NY

Home | Current Version | Previous Version | Text Only | Print | Product List | Glossary On
Versions: 1 2 3 4 5 6 7 8 9 10 11 12 13 14 15 16 17 18 19 20 21 22 23 24 25 26 27 28 29 30 31 32 33 34 35 36 37 38 39 40 41 42 43 44 45 46 47 48 49 50
000
ASUS41 KBGM 251710
RWRBGM
RWRBGM
BINGHAMTON REGIONAL WEATHER ROUNDUP
NATIONAL WEATHER SERVICE BINGHAMTON NY
100 PM EDT FRI JUL 25 2014

Note: "fair" indicates few or no clouds below 12,000 feet with no
significant weather and/or obstructions to visibility.

* = Station(s) that does not report precipitation, such as rain,
snow, etc, also no thunder or fog.

!NYZ009-015>018-022>025-036-037-044>046-055>057-062-251800
...CENTRAL NEW YORK...

CITY           SKY/WX    TMP DP  RH WIND       PRES   REMARKS
BINGHAMTON     MOSUNNY   70  53  54 VRB3      30.08S
CORTLAND       FAIR      72  52  49 NW3       30.08F
DANSVILLE      NOT AVBL
ELMIRA         SUNNY     73  52  47 SE5       30.06F
ITHACA         MOSUNNY   72  54  53 VRB6      30.08F
HAMILTON       MOSUNNY   73  54  49 NW6       30.05F
MONTICELLO     SUNNY     73  54  49 SW3       30.06F
NORWICH        MOSUNNY   72  55  56 CALM      30.05F
ONEONTA        SUNNY     70  52  52 W6        30.07F
PENN YAN       MOSUNNY   74  52  46 SW8       30.07F
ROME           SUNNY     73  55  53 W10       30.05S
SIDNEY         MOSUNNY   75  57  53 W3        30.06S
SYRACUSE       MOSUNNY   78  50  37 NW10G16   30.04S
$$

!PAZ038>040-043-044-047-048-072-251800
...NORTHEAST PENNSYLVANIA...

CITY           SKY/WX    TMP DP  RH WIND       PRES   REMARKS
HAZLETON       SUNNY     70  52  52 CALM      30.11S
SCRANTON       SUNNY     74  49  41 VRB3      30.05F
TOWANDA*       MOSUNNY   73  52  46 NE6       30.06F
$$
&&
KEY
WCI = WIND CHILL INDEX
VSB = VISIBILITY
HX  = HEAT INDEX
$$



USA.gov is the U.S. government's official web portal to all federal, state and local government web resources and services.